Tracking 18796 objects as of 19-September-2017
HD Live streaming from Space Station
objects crossing your sky now

IRIDIUM 124

Track IRIDIUM 124 now!
10-day predictions
IRIDIUM 124 is classified as:


NORAD ID: 42810
Int'l Code: 2017-039H
Perigee: 616.2 km
Apogee: 631.3 km
Inclination: 85.9 °
Period: 97.0 minutes
Semi major axis: 6994 km
RCS: Unknown
Launch date: June 25, 2017
Source: United States (US)
Launch site: AIR FORCE WESTERN TEST RANGE (AFWTR)
aabbcc
Your satellite tracking list
Your tracking list is empty





NASA's NSSDC Master Catalog

Two Line Element Set (TLE):
1 42810U 17039H   17262.46045684  .00000127  00000-0  11837-4 0  9994
2 42810  85.8865 242.3342 0010830 302.8225  57.1955 14.84035602 12694
Source of the keplerian elements: AFSPC